Flag for USA

Past Weather in Parkesburg, Pennsylvania, USA — Yesterday and Last 2 Weeks

Now
77 °F

Sunny.


Feels Like: 78 °F
Forecast: 77 / 49 °F
Wind: 14 mph from West

Location: Lancaster Airport
Current Time: Sep 23, 2020 at 12:30:45 pm
Latest Report: Sep 23, 2020 at 11:53 am
Visibility: 10 mi
Pressure29.96 "Hg
Humidity: 37%
Dew Point: 49 °F
Location of ParkesburgLocation

Past Weather in Parkesburg — Graph

°F

Parkesburg Temperature Yesterday

Maximum temperature yesterday: 75 °F (at 3:53 pm)
Minimum temperature yesterday: 40 °F (at 5:53 am)
Average temperature yesterday: 57 °F

High & Low Weather Summary for the Past Weeks

 TemperatureHumidityPressure
High94 °F (Sep 13, 10:53 am)94% (Sep 11, 12:53 am)30.59 "Hg (Sep 11, 12:53 am)
Low39 °F (Sep 21, 6:53 am)22% (Sep 22, 3:53 pm)29.91 "Hg (Sep 18, 2:53 am)
Average66 °F65%30.21 "Hg
* Reported Sep 8 10:53 am — Sep 23 10:53 am, Parkesburg. Weather by CustomWeather, © 2020

Note: Actual official high and low records may vary slightly from our data, if they occured in-between our weather recording intervals... More about our weather records

Parkesburg Weather History for the Previous 24 Hours

Scroll right to see more
 ConditionsComfort  
Time TempWeatherWind HumidityBarometerVisibility
10:53 am
Wed, Sep 23
73 °FSunny.10 mph40%29.98 "Hg10 mi
9:53 am68 °FSunny.7 mph45%29.98 "Hg10 mi
8:53 am63 °FSunny.10 mph54%29.98 "Hg10 mi
7:53 am55 °FSunny.7 mph72%29.99 "Hg10 mi
6:53 am53 °FClear.3 mph72%29.98 "Hg10 mi
5:53 am52 °FClear.8 mph72%29.96 "Hg10 mi
4:53 am51 °FClear.7 mph71%29.96 "Hg10 mi
3:53 am52 °FClear.8 mph69%29.96 "Hg10 mi
2:53 am54 °FClear.5 mph62%29.96 "Hg10 mi
1:53 am57 °FClear.5 mph55%29.96 "Hg10 mi
12:53 am56 °FClear.6 mph58%29.96 "Hg10 mi
11:53 pm
Tue, Sep 22
57 °FClear.6 mph51%29.97 "Hg10 mi
10:53 pm58 °FClear.6 mph50%29.96 "Hg10 mi
9:53 pm59 °FClear.8 mph49%29.96 "Hg10 mi
8:53 pm60 °FClear.7 mph46%29.97 "Hg10 mi
7:53 pm62 °FClear.9 mph43%29.98 "Hg10 mi
6:53 pm65 °FSunny.8 mph39%29.98 "Hg10 mi
5:53 pm72 °FSunny.10 mph29%29.98 "Hg10 mi
4:53 pm74 °FSunny.13 mph25%30.00 "Hg10 mi
3:53 pm75 °FSunny.10 mph22%30.02 "Hg10 mi
2:53 pm74 °FSunny.15 mph24%30.06 "Hg10 mi
1:53 pm73 °FSunny.13 mph25%30.09 "Hg10 mi
12:53 pm72 °FSunny.9 mph28%30.14 "Hg10 mi
Weather by CustomWeather, © 2020

See weather overview